Find Starlink 36397

NORAD ID: 67538 Int'l Des: 2026-014 Owner: SPXS Country: US Constellation: starlink operational
LEOCIRCULARRETROGRADE

当前视图

正在加载3D地球...

关于 Starlink 36397

正在加载描述...

即将过境

Passes for default location (London). Set your location on the main map for personalized predictions.

高度历史

Loading altitude history...

两行轨道根数

1 67538U 26014G 26146.26144866 .00047139 00000-0 14532-2 0 9999
2 67538 97.2857 33.3217 0002462 97.1171 263.0352 15.33446529 20676
Epoch: May 26, 2026 • Age: 9 hours

当前状态

高度 475.2 km
速度 7.63 km/s
星下点 -24.40°S, 101.27°E
发射日期 Jan 22, 2026
运行时间 0.3 years
类型 internet

技术详情

分类 Payload
质量 575.00 kg
干质量 530.00 kg
总质量 575.00 kg
长度 0.30 m
直径 4.10 m
跨度 29.00 m
形状 Box + pan
制造商 SPXS
平台类型 Starlink V2MO
阶段状态 In Orbit
所有者/国家 SPXS/US

Most Searched